| time (UTC) | temp F | wind direction | speed knots | gust knots | rain 1hr in | rain 24hr in | rain mn in | humidity % | barometer mb |
| 20260901012334 | 66 | 263 | 4.3 | 13.0 | 0.00 | 0.00 | 0.00 | 51 | 1016.9 |
| 20260901011822 | 66 | 263 | 4.3 | 13.0 | 0.00 | 0.00 | 0.00 | 52 | 1016.9 |
| 20260901011319 | 66 | 263 | 5.2 | 13.0 | 0.00 | 0.00 | 0.00 | 52 | 1017.6 |
| 20260901010208 | 66 | 263 | 3.5 | 11.3 | 0.00 | 0.00 | 0.00 | 51 | 1017.6 |
| 20260901005705 | 66 | 263 | 2.6 | 11.3 | 0.00 | 0.00 | 0.00 | 51 | 1018.0 |
| 20260901005211 | 66 | 263 | 1.7 | 9.6 | 0.00 | 0.00 | 0.00 | 51 | 1018.0 |
| 20260901004710 | 66 | 263 | 2.6 | 9.6 | 0.00 | 0.00 | 0.00 | 51 | 1018.0 |
| 20260901004217 | 66 | 263 | 2.6 | 11.3 | 0.00 | 0.00 | 0.00 | 51 | 1017.6 |
| 20260901003725 | 65 | 263 | 3.5 | 11.3 | 0.00 | 0.00 | 0.00 | 51 | 1017.6 |
| 20260901003218 | 66 | 263 | 3.5 | 11.3 | 0.00 | 0.00 | 0.00 | 51 | 1017.6 |
| 20260901002716 | 66 | 263 | 3.5 | 11.3 | 0.00 | 0.00 | 0.00 | 50 | 1017.8 |
| 20260901002217 | 66 | 263 | 3.5 | 13.9 | 0.00 | 0.00 | 0.00 | 50 | 1017.8 |
| 20260901001715 | 66 | 263 | 2.6 | 13.9 | 0.00 | 0.00 | 0.00 | 50 | 1017.8 |
| 20260901001158 | 66 | 263 | 4.3 | 13.9 | 0.00 | 0.00 | 0.00 | 50 | 1018.0 |
| 20260901000700 | 66 | 263 | 5.2 | 13.9 | 0.00 | 0.00 | 0.00 | 49 | 1018.0 |
| 20260901000204 | 67 | 263 | 3.5 | 13.0 | 0.00 | 0.00 | 0.00 | 48 | 1018.0 |
| 20260831235648 | 67 | 263 | 4.3 | 13.0 | 0.00 | 0.00 | 0.00 | 48 | 1018.0 |
| 20260831235146 | 67 | 263 | 4.3 | 13.0 | 0.00 | 0.00 | 0.00 | 47 | 1018.0 |
| 20260831234635 | 67 | 263 | 4.3 | 12.2 | 0.00 | 0.00 | 0.00 | 48 | 1018.0 |
| 20260831234127 | 67 | 263 | 4.3 | 12.2 | 0.00 | 0.00 | 0.00 | 48 | 1018.3 |
| 20260831233617 | 66 | 263 | 2.6 | 9.6 | 0.00 | 0.00 | 0.00 | 50 | 1018.3 |
| 20260831233118 | 66 | 263 | 2.6 | 9.6 | 0.00 | 0.00 | 0.00 | 50 | 1018.3 |
| 20260831232603 | 65 | 263 | 2.6 | 9.6 | 0.00 | 0.00 | 0.00 | 51 | 1018.5 |
| 20260831232047 | 65 | 263 | 2.6 | 9.6 | 0.00 | 0.00 | 0.00 | 51 | 1018.5 |
| 20260831231547 | 64 | 263 | 2.6 | 8.7 | 0.00 | 0.00 | 0.00 | 52 | 1018.5 |
| 20260831231039 | 64 | 263 | 1.7 | 8.7 | 0.00 | 0.00 | 0.00 | 52 | 1018.5 |
| 20260831230525 | 64 | 263 | 0.9 | 6.1 | 0.00 | 0.00 | 0.00 | 52 | 1018.5 |
| 20260831230031 | 64 | 263 | 1.7 | 6.1 | 0.00 | 0.00 | 0.00 | 52 | 1018.5 |
| 20260831225514 | 64 | 263 | 1.7 | 8.7 | 0.00 | 0.00 | 0.00 | 53 | 1018.2 |
| 20260831225022 | 64 | 263 | 2.6 | 8.7 | 0.00 | 0.00 | 0.00 | 53 | 1018.2 |
| 20260831224523 | 64 | 263 | 2.6 | 9.6 | 0.00 | 0.00 | 0.00 | 53 | 1018.2 |
| 20260831223355 | 63 | 263 | 3.5 | 10.4 | 0.00 | 0.00 | 0.00 | 54 | 1018.5 |
| 20260831222857 | 63 | 263 | 3.5 | 10.4 | 0.00 | 0.00 | 0.00 | 54 | 1018.5 |
| 20260831222358 | 63 | 263 | 2.6 | 10.4 | 0.00 | 0.00 | 0.00 | 54 | 1018.5 |
| 20260831221226 | 63 | 263 | 2.6 | 9.6 | 0.00 | 0.00 | 0.00 | 55 | 1018.7 |
| 20260831220726 | 62 | 263 | 1.7 | 7.8 | 0.00 | 0.00 | 0.00 | 55 | 1018.7 |
| 20260831220215 | 62 | 263 | 1.7 | 4.3 | 0.00 | 0.00 | 0.00 | 56 | 1018.7 |
| 20260831213811 | 60 | 263 | 2.6 | 7.0 | 0.00 | 0.00 | 0.00 | 59 | 1018.5 |
| 20260831213307 | 59 | 263 | 1.7 | 7.0 | 0.00 | 0.00 | 0.00 | 61 | 1018.5 |
| 20260831211518 | 58 | 263 | 2.6 | 7.0 | 0.00 | 0.00 | 0.00 | 62 | 1018.5 |
| 20260831210959 | 58 | 263 | 2.6 | 7.0 | 0.00 | 0.00 | 0.00 | 62 | 1018.6 |
| 20260831210508 | 58 | 263 | 1.7 | 7.0 | 0.00 | 0.00 | 0.00 | 62 | 1018.6 |
| 20260831210009 | 58 | 263 | 1.7 | 7.8 | 0.00 | 0.00 | 0.00 | 62 | 1018.6 |
| 20260831205457 | 58 | 263 | 2.6 | 7.8 | 0.00 | 0.00 | 0.00 | 62 | 1018.6 |
| 20260831204335 | 58 | 263 | 1.7 | 7.8 | 0.00 | 0.00 | 0.00 | 63 | 1018.7 |
| 20260831203839 | 57 | 263 | 1.7 | 6.1 | 0.00 | 0.00 | 0.00 | 63 | 1018.7 |
| 20260831203329 | 57 | 263 | 1.7 | 6.1 | 0.00 | 0.00 | 0.00 | 63 | 1018.7 |
| 20260831202823 | 57 | 263 | 1.7 | 6.1 | 0.00 | 0.00 | 0.00 | 63 | 1018.6 |
| 20260831202332 | 57 | 263 | 1.7 | 5.2 | 0.00 | 0.00 | 0.00 | 63 | 1018.6 |
| 20260831201153 | 57 | 263 | 1.7 | 7.0 | 0.00 | 0.00 | 0.00 | 62 | 1018.8 |
| 20260831200645 | 57 | 263 | 1.7 | 7.0 | 0.00 | 0.00 | 0.00 | 62 | 1018.8 |
| 20260831200129 | 57 | 263 | 1.7 | 7.0 | 0.00 | 0.00 | 0.00 | 62 | 1018.8 |
| 20260831195612 | 58 | 263 | 1.7 | 6.1 | 0.00 | 0.00 | 0.00 | 62 | 1018.9 |
| 20260831195107 | 58 | 263 | 1.7 | 5.2 | 0.00 | 0.00 | 0.00 | 62 | 1018.9 |
| 20260831194549 | 58 | 263 | 1.7 | 5.2 | 0.00 | 0.00 | 0.00 | 62 | 1018.9 |
| 20260831193419 | 58 | 263 | 1.7 | 7.8 | 0.00 | 0.00 | 0.00 | 61 | 1019.0 |
| 20260831192913 | 58 | 263 | 1.7 | 7.8 | 0.00 | 0.00 | 0.00 | 61 | 1019.0 |
| 20260831192420 | 58 | 263 | 1.7 | 7.8 | 0.00 | 0.00 | 0.00 | 62 | 1019.0 |
| 20260831191920 | 57 | 263 | 1.7 | 7.0 | 0.00 | 0.00 | 0.00 | 62 | 1019.0 |
| 20260831191407 | 57 | 263 | 1.7 | 5.2 | 0.00 | 0.00 | 0.00 | 62 | 1019.0 |
| 20260831190908 | 57 | 263 | 0.9 | 5.2 | 0.00 | 0.00 | 0.00 | 62 | 1019.1 |
| 20260831190412 | 57 | 263 | 0.9 | 5.2 | 0.00 | 0.00 | 0.00 | 61 | 1019.1 |
| 20260831185900 | 57 | 263 | 0.9 | 5.2 | 0.00 | 0.00 | 0.00 | 61 | 1019.2 |
| 20260831185352 | 58 | 263 | 1.7 | 5.2 | 0.00 | 0.00 | 0.00 | 61 | 1019.2 |
| 20260831184836 | 58 | 263 | 1.7 | 5.2 | 0.00 | 0.00 | 0.00 | 61 | 1019.2 |
| 20260831184342 | 58 | 263 | 1.7 | 5.2 | 0.00 | 0.00 | 0.00 | 60 | 1019.4 |
| 20260831183830 | 58 | 263 | 1.7 | 5.2 | 0.00 | 0.00 | 0.00 | 60 | 1019.4 |
| 20260831182719 | 58 | 263 | 1.7 | 6.1 | 0.00 | 0.00 | 0.00 | 60 | 1019.6 |
| 20260831182221 | 58 | 263 | 2.6 | 7.8 | 0.00 | 0.00 | 0.00 | 60 | 1019.6 |
| 20260831181703 | 58 | 263 | 1.7 | 7.8 | 0.00 | 0.00 | 0.00 | 60 | 1019.6 |
| 20260831181205 | 58 | 263 | 2.6 | 7.8 | 0.00 | 0.00 | 0.00 | 59 | 1019.7 |
| 20260831180649 | 58 | 263 | 2.6 | 7.8 | 0.00 | 0.00 | 0.00 | 59 | 1019.7 |
| 20260831180133 | 58 | 263 | 2.6 | 6.1 | 0.00 | 0.00 | 0.00 | 59 | 1019.7 |
| 20260831175633 | 58 | 263 | 1.7 | 6.1 | 0.00 | 0.00 | 0.00 | 59 | 1020.0 |
| 20260831175125 | 58 | 263 | 1.7 | 7.8 | 0.00 | 0.00 | 0.00 | 59 | 1020.0 |
| 20260831174604 | 58 | 263 | 1.7 | 7.8 | 0.00 | 0.00 | 0.00 | 59 | 1020.0 |
| 20260831174045 | 58 | 263 | 2.6 | 7.8 | 0.00 | 0.00 | 0.00 | 59 | 1020.0 |
| 20260831173526 | 58 | 263 | 2.6 | 7.8 | 0.00 | 0.00 | 0.00 | 59 | 1020.0 |
| 20260831173005 | 58 | 263 | 1.7 | 6.1 | 0.00 | 0.00 | 0.00 | 59 | 1020.0 |
| 20260831172504 | 58 | 263 | 1.7 | 6.1 | 0.00 | 0.00 | 0.00 | 59 | 1020.1 |
| 20260831171950 | 58 | 263 | 1.7 | 7.0 | 0.00 | 0.00 | 0.00 | 59 | 1020.1 |
| 20260831171458 | 58 | 263 | 1.7 | 7.0 | 0.00 | 0.00 | 0.00 | 59 | 1020.1 |
| 20260831170325 | 58 | 263 | 1.7 | 7.0 | 0.00 | 0.00 | 0.00 | 60 | 1020.4 |
| 20260831165816 | 58 | 263 | 0.9 | 4.3 | 0.00 | 0.00 | 0.00 | 60 | 1020.6 |
| 20260831165323 | 58 | 263 | 0.9 | 3.5 | 0.00 | 0.00 | 0.00 | 59 | 1020.6 |
| 20260831164829 | 58 | 263 | 0.9 | 3.5 | 0.00 | 0.00 | 0.00 | 59 | 1020.6 |
| 20260831164326 | 58 | 263 | 0.9 | 3.5 | 0.00 | 0.00 | 0.00 | 59 | 1020.8 |
| 20260831163834 | 58 | 263 | 0.9 | 3.5 | 0.00 | 0.00 | 0.00 | 58 | 1020.8 |
| 20260831163326 | 59 | 263 | 0.9 | 2.6 | 0.00 | 0.00 | 0.00 | 58 | 1020.8 |
| 20260831162833 | 59 | 263 | 0.9 | 4.3 | 0.00 | 0.00 | 0.00 | 58 | 1021.0 |
| 20260831162334 | 59 | 263 | 0.9 | 4.3 | 0.00 | 0.00 | 0.00 | 58 | 1021.0 |
| 20260831161825 | 59 | 263 | 1.7 | 9.6 | 0.00 | 0.00 | 0.00 | 57 | 1021.0 |
| 20260831160646 | 59 | 263 | 1.7 | 9.6 | 0.00 | 0.00 | 0.00 | 57 | 1021.2 |
| 20260831160141 | 59 | 263 | 1.7 | 7.0 | 0.00 | 0.00 | 0.00 | 58 | 1021.2 |
| 20260831155622 | 59 | 263 | 1.7 | 5.2 | 0.00 | 0.00 | 0.00 | 57 | 1021.5 |
| 20260831155123 | 59 | 263 | 0.9 | 5.2 | 0.00 | 0.00 | 0.00 | 57 | 1021.5 |
| 20260831154607 | 59 | 263 | 0.9 | 5.2 | 0.00 | 0.00 | 0.00 | 57 | 1021.5 |
| 20260831154057 | 59 | 263 | 0.9 | 5.2 | 0.00 | 0.00 | 0.00 | 57 | 1021.8 |
| 20260831153558 | 59 | 263 | 0.9 | 4.3 | 0.00 | 0.00 | 0.00 | 56 | 1021.8 |
| 20260831153058 | 59 | 263 | 0.9 | 4.3 | 0.00 | 0.00 | 0.00 | 56 | 1021.8 |
| 20260831152555 | 59 | 263 | 1.7 | 7.0 | 0.00 | 0.00 | 0.00 | 56 | 1022.0 |
| 20260831152104 | 60 | 263 | 1.7 | 7.0 | 0.00 | 0.00 | 0.00 | 55 | 1022.0 |
| 20260831150922 | 59 | 263 | 1.7 | 7.0 | 0.00 | 0.00 | 0.00 | 55 | 1022.1 |
| 20260831150410 | 59 | 263 | 1.7 | 5.2 | 0.00 | 0.00 | 0.00 | 56 | 1022.1 |
| 20260831145904 | 59 | 263 | 1.7 | 7.0 | 0.00 | 0.00 | 0.00 | 56 | 1022.2 |
| 20260831145348 | 59 | 263 | 1.7 | 7.0 | 0.00 | 0.00 | 0.00 | 56 | 1022.2 |
| 20260831144217 | 59 | 263 | 1.7 | 7.0 | 0.00 | 0.00 | 0.00 | 56 | 1022.3 |
| 20260831143724 | 59 | 263 | 1.7 | 5.2 | 0.00 | 0.00 | 0.00 | 56 | 1022.3 |
| 20260831142547 | 58 | 263 | 1.7 | 7.0 | 0.00 | 0.00 | 0.00 | 57 | 1022.6 |
| 20260831142028 | 58 | 263 | 1.7 | 7.0 | 0.00 | 0.00 | 0.00 | 57 | 1022.6 |
| 20260831140928 | 58 | 263 | 0.9 | 5.2 | 0.00 | 0.00 | 0.00 | 59 | 1022.8 |
| 20260831140422 | 57 | 263 | 0.9 | 4.3 | 0.00 | 0.00 | 0.00 | 60 | 1022.8 |
| 20260831135924 | 57 | 263 | 0.9 | 4.3 | 0.00 | 0.00 | 0.00 | 60 | 1022.8 |
| 20260831135419 | 57 | 263 | 0.9 | 4.3 | 0.00 | 0.00 | 0.00 | 61 | 1023.2 |
| 20260831134919 | 57 | 263 | 0.9 | 4.3 | 0.00 | 0.00 | 0.00 | 61 | 1023.2 |
| 20260831134401 | 57 | 263 | 0.0 | 3.5 | 0.00 | 0.00 | 0.00 | 62 | 1023.4 |
| 20260831133853 | 57 | 263 | 0.0 | 3.5 | 0.00 | 0.00 | 0.00 | 62 | 1023.4 |
| 20260831132726 | 57 | 263 | 0.0 | 2.6 | 0.00 | 0.00 | 0.00 | 62 | 1023.8 |
| 20260831132229 | 57 | 263 | 0.9 | 2.6 | 0.00 | 0.00 | 0.00 | 63 | 1023.8 |
| 20260831131055 | 57 | 263 | 0.0 | 1.7 | 0.00 | 0.00 | 0.00 | 62 | 1023.8 |
| 20260831130548 | 57 | 263 | 0.0 | 1.7 | 0.00 | 0.00 | 0.00 | 62 | 1023.8 |
| 20260831130035 | 57 | 263 | 0.0 | 5.2 | 0.00 | 0.00 | 0.00 | 63 | 1023.8 |
| 20260831124902 | 57 | 263 | 0.9 | 5.2 | 0.00 | 0.00 | 0.00 | 68 | 1023.8 |
| 20260831124342 | 57 | 263 | 0.9 | 3.5 | 0.00 | 0.00 | 0.00 | 68 | 1023.8 |
| 20260831123834 | 56 | 263 | 0.9 | 3.5 | 0.00 | 0.00 | 0.00 | 68 | 1023.8 |
| 20260831123332 | 56 | 263 | 0.9 | 3.5 | 0.00 | 0.00 | 0.00 | 68 | 1023.8 |
| 20260831122819 | 56 | 263 | 0.9 | 3.5 | 0.00 | 0.00 | 0.00 | 68 | 1023.9 |
| 20260831122312 | 56 | 263 | 0.9 | 3.5 | 0.00 | 0.00 | 0.00 | 69 | 1023.9 |
| 20260831121817 | 55 | 263 | 0.0 | 3.5 | 0.00 | 0.00 | 0.00 | 70 | 1023.9 |
| 20260831121308 | 55 | 263 | 0.0 | 2.6 | 0.00 | 0.00 | 0.00 | 71 | 1023.9 |
| 20260831120813 | 55 | 263 | 0.0 | 2.6 | 0.00 | 0.00 | 0.00 | 71 | 1023.9 |
| 20260831120309 | 55 | 263 | 0.0 | 0.9 | 0.00 | 0.00 | 0.00 | 71 | 1023.9 |
| 20260831115115 | 56 | 263 | 0.0 | 0.0 | 0.00 | 0.00 | 0.00 | 70 | 1024.0 |
| 20260831114601 | 56 | 263 | 0.0 | 0.9 | 0.00 | 0.00 | 0.00 | 70 | 1024.0 |
| 20260831114057 | 56 | 263 | 0.0 | 0.0 | 0.00 | 0.00 | 0.00 | 70 | 1024.1 |
| 20260831113544 | 56 | 263 | 0.0 | 1.7 | 0.00 | 0.00 | 0.00 | 71 | 1024.1 |
| 20260831112409 | 56 | 263 | 0.0 | 0.9 | 0.00 | 0.00 | 0.00 | 72 | 1024.3 |
| 20260831111859 | 56 | 263 | 0.9 | 0.9 | 0.00 | 0.00 | 0.00 | 72 | 1024.3 |
| 20260831111348 | 56 | 263 | 0.9 | 0.9 | 0.00 | 0.00 | 0.00 | 72 | 1024.3 |
| 20260831110200 | 56 | 263 | 0.0 | 1.7 | 0.00 | 0.00 | 0.00 | 73 | 1024.3 |
| 20260831105700 | 56 | 263 | 0.0 | 1.7 | 0.00 | 0.00 | 0.00 | 73 | 1024.4 |
| 20260831105202 | 56 | 263 | 0.0 | 1.7 | 0.00 | 0.00 | 0.00 | 73 | 1024.4 |
| 20260831104651 | 56 | 263 | 0.0 | 1.7 | 0.00 | 0.00 | 0.00 | 73 | 1024.4 |
| 20260831104149 | 57 | 263 | 0.0 | 0.0 | 0.00 | 0.00 | 0.00 | 73 | 1024.4 |
| 20260831103650 | 57 | 263 | 0.0 | 0.9 | 0.00 | 0.00 | 0.00 | 73 | 1024.4 |
| 20260831103140 | 57 | 263 | 0.0 | 1.7 | 0.00 | 0.00 | 0.00 | 73 | 1024.4 |
| 20260831102640 | 57 | 263 | 0.0 | 1.7 | 0.00 | 0.00 | 0.00 | 73 | 1024.8 |
| 20260831102129 | 57 | 263 | 0.0 | 0.0 | 0.00 | 0.00 | 0.00 | 73 | 1024.8 |
| 20260831100957 | 58 | 263 | 0.0 | 0.0 | 0.00 | 0.00 | 0.00 | 73 | 1024.9 |
| 20260831095226 | 59 | 263 | 0.0 | 0.0 | 0.00 | 0.00 | 0.00 | 72 | 1024.9 |
| 20260831094053 | 60 | 263 | 0.0 | 0.0 | 0.00 | 0.00 | 0.00 | 70 | 1024.9 |
| 20260831093543 | 60 | 263 | 0.0 | 0.0 | 0.00 | 0.00 | 0.00 | 70 | 1024.9 |
| 20260831093038 | 61 | 263 | 0.0 | 0.0 | 0.00 | 0.00 | 0.00 | 70 | 1024.9 |
| 20260831092527 | 61 | 263 | 0.0 | 0.0 | 0.00 | 0.00 | 0.00 | 69 | 1024.9 |
| 20260831092026 | 61 | 263 | 0.0 | 0.0 | 0.00 | 0.00 | 0.00 | 68 | 1024.9 |
| 20260831091517 | 62 | 263 | 0.0 | 0.0 | 0.00 | 0.00 | 0.00 | 67 | 1024.9 |
| 20260831091002 | 62 | 263 | 0.0 | 0.0 | 0.00 | 0.00 | 0.00 | 67 | 1024.9 |
| 20260831090445 | 62 | 263 | 0.0 | 0.0 | 0.00 | 0.00 | 0.00 | 67 | 1024.9 |
| 20260831085946 | 63 | 263 | 0.0 | 0.0 | 0.00 | 0.00 | 0.00 | 66 | 1024.9 |
| 20260831085435 | 63 | 263 | 0.0 | 0.0 | 0.00 | 0.00 | 0.00 | 65 | 1025.0 |
| 20260831084930 | 64 | 263 | 0.0 | 0.0 | 0.00 | 0.00 | 0.00 | 64 | 1025.0 |
| 20260831083816 | 65 | 263 | 0.0 | 0.0 | 0.00 | 0.00 | 0.00 | 62 | 1025.1 |
| 20260831082631 | 65 | 263 | 0.0 | 0.0 | 0.00 | 0.00 | 0.00 | 61 | 1025.2 |
| 20260831082113 | 66 | 263 | 0.0 | 0.0 | 0.00 | 0.00 | 0.00 | 61 | 1025.2 |
| 20260831081555 | 66 | 263 | 0.0 | 2.6 | 0.00 | 0.00 | 0.00 | 61 | 1025.2 |
| 20260831081042 | 66 | 263 | 0.9 | 3.5 | 0.00 | 0.00 | 0.00 | 60 | 1025.1 |
| 20260831080535 | 66 | 263 | 0.9 | 3.5 | 0.00 | 0.00 | 0.00 | 60 | 1025.1 |
| 20260831080026 | 67 | 263 | 1.7 | 3.5 | 0.00 | 0.00 | 0.00 | 59 | 1025.1 |
| 20260831075529 | 67 | 263 | 0.9 | 3.5 | 0.00 | 0.00 | 0.00 | 59 | 1024.9 |
| 20260831075037 | 67 | 263 | 0.9 | 2.6 | 0.00 | 0.00 | 0.00 | 59 | 1024.9 |
| 20260831074523 | 67 | 263 | 0.9 | 2.6 | 0.00 | 0.00 | 0.00 | 59 | 1024.9 |
| 20260831074011 | 67 | 263 | 1.7 | 2.6 | 0.00 | 0.00 | 0.00 | 58 | 1025.0 |
| 20260831073509 | 67 | 263 | 1.7 | 3.5 | 0.00 | 0.00 | 0.00 | 58 | 1025.0 |
| 20260831072352 | 68 | 263 | 0.9 | 3.5 | 0.00 | 0.00 | 0.00 | 58 | 1025.0 |
| 20260831071850 | 68 | 263 | 0.9 | 0.0 | 0.00 | 0.00 | 0.00 | 57 | 1025.0 |
| 20260831071358 | 68 | 263 | 1.7 | 3.5 | 0.00 | 0.00 | 0.00 | 58 | 1025.1 |
| 20260831070904 | 68 | 263 | 0.9 | 3.5 | 0.00 | 0.00 | 0.00 | 57 | 1025.1 |
| 20260831070354 | 67 | 263 | 0.9 | 3.5 | 0.00 | 0.00 | 0.00 | 58 | 1025.1 |
| 20260831065241 | 67 | 263 | 1.7 | 5.2 | 0.00 | 0.00 | 0.00 | 59 | 1025.3 |
| 20260831064735 | 67 | 263 | 1.7 | 5.2 | 0.00 | 0.00 | 0.00 | 59 | 1025.3 |
| 20260831064234 | 67 | 263 | 1.7 | 6.1 | 0.00 | 0.00 | 0.00 | 58 | 1025.4 |
| 20260831063112 | 67 | 263 | 1.7 | 6.1 | 0.00 | 0.00 | 0.00 | 59 | 1025.4 |
| 20260831062621 | 67 | 263 | 2.6 | 7.0 | 0.00 | 0.00 | 0.00 | 59 | 1025.5 |
| 20260831062128 | 68 | 263 | 3.5 | 7.0 | 0.00 | 0.00 | 0.00 | 58 | 1025.5 |
| 20260831061628 | 68 | 263 | 2.6 | 7.0 | 0.00 | 0.00 | 0.00 | 58 | 1025.5 |
| 20260831061108 | 68 | 263 | 2.6 | 7.0 | 0.00 | 0.00 | 0.00 | 57 | 1025.7 |
| 20260831060555 | 68 | 263 | 2.6 | 7.0 | 0.00 | 0.00 | 0.00 | 57 | 1025.7 |
| 20260831060044 | 68 | 263 | 2.6 | 7.0 | 0.00 | 0.00 | 0.00 | 56 | 1025.7 |
| 20260831055553 | 69 | 263 | 2.6 | 7.0 | 0.00 | 0.00 | 0.00 | 56 | 1025.6 |
| 20260831055048 | 69 | 263 | 2.6 | 5.2 | 0.00 | 0.00 | 0.00 | 55 | 1025.6 |
| 20260831053859 | 70 | 263 | 3.5 | 8.7 | 0.00 | 0.00 | 0.00 | 54 | 1025.6 |
| 20260831053400 | 70 | 263 | 2.6 | 8.7 | 0.00 | 0.00 | 0.00 | 55 | 1025.6 |
| 20260831052842 | 70 | 263 | 3.5 | 7.8 | 0.00 | 0.00 | 0.00 | 54 | 1025.8 |
| 20260831052351 | 70 | 263 | 2.6 | 7.8 | 0.00 | 0.00 | 0.00 | 53 | 1025.8 |
| 20260831051831 | 70 | 263 | 2.6 | 7.8 | 0.00 | 0.00 | 0.00 | 55 | 1025.8 |
| 20260831051340 | 70 | 263 | 3.5 | 7.8 | 0.00 | 0.00 | 0.00 | 53 | 1025.9 |
| 20260831050154 | 71 | 263 | 1.7 | 7.0 | 0.00 | 0.00 | 0.00 | 52 | 1025.9 |
| 20260831045651 | 71 | 263 | 1.7 | 7.0 | 0.00 | 0.00 | 0.00 | 50 | 1026.1 |
| 20260831044509 | 69 | 263 | 2.6 | 7.0 | 0.00 | 0.00 | 0.00 | 54 | 1026.1 |
| 20260831044011 | 69 | 263 | 2.6 | 8.7 | 0.00 | 0.00 | 0.00 | 53 | 1026.4 |
| 20260831043505 | 69 | 263 | 2.6 | 8.7 | 0.00 | 0.00 | 0.00 | 54 | 1026.4 |
| 20260831042959 | 69 | 263 | 4.3 | 8.7 | 0.00 | 0.00 | 0.00 | 54 | 1026.4 |
| 20260831041844 | 70 | 263 | 2.6 | 7.8 | 0.00 | 0.00 | 0.00 | 52 | 1026.8 |
| 20260831041329 | 70 | 263 | 2.6 | 7.0 | 0.00 | 0.00 | 0.00 | 52 | 1027.0 |
| 20260831040818 | 70 | 263 | 2.6 | 7.0 | 0.00 | 0.00 | 0.00 | 53 | 1027.0 |
| 20260831040315 | 69 | 263 | 2.6 | 7.8 | 0.00 | 0.00 | 0.00 | 53 | 1027.0 |
| 20260831035757 | 69 | 263 | 2.6 | 7.8 | 0.00 | 0.00 | 0.00 | 52 | 1027.4 |
| 20260831035250 | 69 | 263 | 2.6 | 7.8 | 0.00 | 0.00 | 0.00 | 52 | 1027.4 |
| 20260831034739 | 70 | 263 | 2.6 | 7.8 | 0.00 | 0.00 | 0.00 | 51 | 1027.4 |
| 20260831034235 | 70 | 263 | 2.6 | 6.1 | 0.00 | 0.00 | 0.00 | 50 | 1027.6 |
| 20260831033105 | 70 | 263 | 0.9 | 4.3 | 0.00 | 0.00 | 0.00 | 49 | 1027.6 |
| 20260831032555 | 69 | 263 | 1.7 | 5.2 | 0.00 | 0.00 | 0.00 | 50 | 1028.0 |
| 20260831032046 | 69 | 263 | 2.6 | 5.2 | 0.00 | 0.00 | 0.00 | 51 | 1028.0 |
| 20260831031536 | 69 | 263 | 1.7 | 5.2 | 0.00 | 0.00 | 0.00 | 52 | 1028.0 |
| 20260831031033 | 69 | 263 | 1.7 | 5.2 | 0.00 | 0.00 | 0.00 | 51 | 1028.4 |
| 20260831030520 | 69 | 263 | 2.6 | 7.0 | 0.00 | 0.00 | 0.00 | 52 | 1028.4 |
| 20260831030005 | 69 | 263 | 1.7 | 7.0 | 0.00 | 0.00 | 0.00 | 52 | 1028.4 |
| 20260831025503 | 69 | 263 | 2.6 | 7.0 | 0.00 | 0.00 | 0.00 | 51 | 1028.6 |
| 20260831024950 | 69 | 263 | 1.7 | 7.0 | 0.00 | 0.00 | 0.00 | 50 | 1028.6 |
| 20260831024447 | 70 | 263 | 0.9 | 4.3 | 0.00 | 0.00 | 0.00 | 50 | 1028.6 |
| 20260831023939 | 70 | 263 | 0.9 | 4.3 | 0.00 | 0.00 | 0.00 | 49 | 1029.0 |
| 20260831023444 | 70 | 263 | 0.9 | 4.3 | 0.00 | 0.00 | 0.00 | 51 | 1029.0 |
| 20260831022935 | 69 | 263 | 0.9 | 4.3 | 0.00 | 0.00 | 0.00 | 51 | 1029.0 |
| 20260831022416 | 69 | 263 | 0.9 | 4.3 | 0.00 | 0.00 | 0.00 | 53 | 1029.2 |
| 20260831021240 | 67 | 263 | 0.9 | 5.2 | 0.00 | 0.00 | 0.00 | 57 | 1029.5 |
| 20260831015522 | 66 | 263 | 0.9 | 3.5 | 0.00 | 0.00 | 0.00 | 59 | 1029.6 |
| 20260831015016 | 66 | 263 | 1.7 | 5.2 | 0.00 | 0.00 | 0.00 | 59 | 1029.6 |
| 20260831014525 | 66 | 263 | 0.9 | 5.2 | 0.00 | 0.00 | 0.00 | 59 | 1029.6 |
| 20260831014031 | 66 | 263 | 1.7 | 5.2 | 0.00 | 0.00 | 0.00 | 60 | 1030.0 |
| 20260831013536 | 65 | 263 | 1.7 | 5.2 | 0.00 | 0.00 | 0.00 | 60 | 1030.0 |
| 20260831013023 | 65 | 263 | 0.9 | 4.3 | 0.00 | 0.00 | 0.00 | 60 | 1030.0 |
| 20260831012531 | 65 | 263 | 0.9 | 4.3 | 0.00 | 0.00 | 0.00 | 60 | 1030.1 |